When you browse on this site, cookies collect data to enhance your experience and personalize the content and advertising you see.
Visit our Privacy Policy to learn more. By continuing to use the site, you agree to this use of cookies and data.
  • In Denmark
  • List of Countries
  • For 7 days
  • Water Temperature
  • Satellite Maps
  • Weather Map
  • Weather Widgets
  • user-avatar
    Login

    Hourly Weather Czyrna

    Today, 19 November, Monday

    Time Temperature Precipitation Wind Pressure Humidity
    00:00 -3°C° 0 mm 1 mps 715 mmHg 62%
    01:00 -3°C° 0 mm 1 mps 715 mmHg 61%
    02:00 -3°C° 0 mm 1 mps 715 mmHg 63%
    03:00 -5°C° 0 mm 2 mps 715 mmHg 65%
    04:00 -5°C° 0 mm 2 mps 714 mmHg 67%
    05:00 -5°C° 0 mm 2 mps 714 mmHg 69%
    06:00 -5°C° 0 mm 2 mps 714 mmHg 71%
    07:00 -5°C° 0 mm 2 mps 714 mmHg 73%
    08:00 -4°C° 0 mm 2 mps 714 mmHg 73%
    09:00 -4°C° 0 mm 3 mps 715 mmHg 73%
    10:00 -2°C° 0 mm 3 mps 715 mmHg 73%
    11:00 -1°C° 0 mm 3 mps 715 mmHg 72%
    12:00 -1°C° 0 mm 3 mps 715 mmHg 72%
    13:00 0°C° 0 mm 3 mps 715 mmHg 72%
    14:00 -1°C° 0 mm 3 mps 715 mmHg 75%
    15:00 -1°C° 0 mm 3 mps 715 mmHg 79%
    16:00 -2°C° 0 mm 3 mps 715 mmHg 82%
    17:00 -2°C° 0 mm 3 mps 715 mmHg 84%
    18:00 -2°C° 0 mm 2 mps 715 mmHg 85%
    19:00 -3°C° 0 mm 2 mps 716 mmHg 87%
    20:00 -3°C° 0 mm 2 mps 716 mmHg 88%
    21:00 -3°C° 0 mm 2 mps 716 mmHg 89%
    22:00 -4°C° 0 mm 2 mps 716 mmHg 90%
    23:00 -4°C° 0 mm 2 mps 716 mmHg 91%

    Tomorrow, 20 November, Tuesday

    Time Temperature Precipitation Wind Pressure Humidity
    00:00 -4°C° 0 mm 2 mps 716 mmHg 91%
    01:00 -4°C° 0 mm 2 mps 716 mmHg 92%
    02:00 -4°C° 0 mm 2 mps 716 mmHg 92%
    03:00 -4°C° 0 mm 2 mps 716 mmHg 93%
    04:00 -4°C° 0 mm 2 mps 715 mmHg 93%
    05:00 -4°C° 0 mm 2 mps 715 mmHg 93%
    06:00 -4°C° 0 mm 2 mps 715 mmHg 92%
    07:00 -4°C° 0 mm 2 mps 715 mmHg 91%
    08:00 -2°C° 0 mm 2 mps 715 mmHg 84%
    09:00 -1°C° 0 mm 3 mps 715 mmHg 77%
    10:00 0°C° 0 mm 3 mps 715 mmHg 70%
    11:00 +1°C° 0 mm 3 mps 714 mmHg 68%
    12:00 +2°C° 0 mm 3 mps 714 mmHg 66%
    13:00 +2°C° 0 mm 3 mps 713 mmHg 64%
    14:00 +2°C° 0.1 mm 3 mps 713 mmHg 69%
    15:00 +1°C° 0.1 mm 3 mps 713 mmHg 74%
    16:00 +1°C° 0.1 mm 2 mps 713 mmHg 79%
    17:00 +1°C° 0.3 mm 2 mps 713 mmHg 81%
    18:00 +1°C° 0.3 mm 2 mps 713 mmHg 82%
    19:00 +1°C° 0.3 mm 2 mps 713 mmHg 84%
    20:00 +1°C° 0.6 mm 2 mps 713 mmHg 85%
    21:00 +1°C° 0.6 mm 2 mps 713 mmHg 86%
    22:00 +1°C° 0.6 mm 2 mps 713 mmHg 87%
    23:00 +1°C° 0.7 mm 2 mps 713 mmHg 89%

    Day after tomorrow, 21 November, Wednesday

    Time Temperature Precipitation Wind Pressure Humidity
    00:00 +1°C° 0.7 mm 2 mps 714 mmHg 91%
    01:00 +1°C° 0.7 mm 2 mps 714 mmHg 93%
    02:00 -1°C° 0.1 mm 2 mps 714 mmHg 93%
    03:00 +1°C° 0.1 mm 1 mps 713 mmHg 94%
    04:00 +1°C° 0.1 mm 1 mps 713 mmHg 95%
    05:00 +1°C° 0.1 mm 1 mps 714 mmHg 94%
    06:00 -1°C° 0.1 mm 2 mps 714 mmHg 94%
    07:00 -1°C° 0.1 mm 2 mps 714 mmHg 94%
    08:00 +1°C° 0.1 mm 2 mps 715 mmHg 93%
    09:00 +1°C° 0.1 mm 2 mps 715 mmHg 91%
    10:00 +1°C° 0.1 mm 2 mps 715 mmHg 90%
    11:00 +2°C° 0 mm 2 mps 715 mmHg 89%
    12:00 +2°C° 0 mm 2 mps 715 mmHg 87%
    13:00 +2°C° 0 mm 2 mps 715 mmHg 86%
    14:00 0°C° 0 mm 3 mps 715 mmHg 88%
    15:00 0°C° 0 mm 3 mps 715 mmHg 90%
    16:00 -1°C° 0 mm 3 mps 715 mmHg 91%
    17:00 -1°C° 0 mm 2 mps 716 mmHg 91%
    18:00 -1°C° 0 mm 2 mps 716 mmHg 91%
    19:00 -1°C° 0 mm 2 mps 716 mmHg 91%
    20:00 -1°C° 0 mm 2 mps 717 mmHg 91%
    21:00 -1°C° 0 mm 2 mps 717 mmHg 92%
    22:00 -2°C° 0 mm 2 mps 717 mmHg 92%
    23:00 -2°C° 0 mm 2 mps 717 mmHg 92%

    22 November, Thursday

    Time Temperature Precipitation Wind Pressure Humidity
    00:00 -2°C° 0 mm 2 mps 717 mmHg 92%
    01:00 -2°C° 0 mm 2 mps 718 mmHg 92%
    02:00 -2°C° 0 mm 2 mps 718 mmHg 92%
    03:00 -2°C° 0 mm 2 mps 718 mmHg 92%
    04:00 -2°C° 0 mm 2 mps 718 mmHg 92%
    05:00 -2°C° 0 mm 2 mps 718 mmHg 92%
    06:00 -2°C° 0 mm 2 mps 718 mmHg 92%
    07:00 -2°C° 0 mm 2 mps 719 mmHg 92%
    08:00 +1°C° 0 mm 1 mps 719 mmHg 90%
    09:00 +1°C° 0 mm 1 mps 719 mmHg 88%
    10:00 +2°C° 0 mm 1 mps 720 mmHg 86%
    11:00 +3°C° 0 mm 1 mps 720 mmHg 84%
    12:00 +3°C° 0 mm 1 mps 720 mmHg 83%
    13:00 +4°C° 0 mm 1 mps 720 mmHg 82%
    14:00 +3°C° 0 mm 1 mps 720 mmHg 85%
    15:00 +2°C° 0 mm 1 mps 720 mmHg 88%
    16:00 +2°C° 0 mm 1 mps 720 mmHg 91%
    17:00 +1°C° 0 mm 1 mps 720 mmHg 92%
    18:00 +1°C° 0 mm 1 mps 720 mmHg 93%
    19:00 0°C° 0 mm 1 mps 721 mmHg 93%
    20:00 0°C° 0 mm 1 mps 721 mmHg 94%
    21:00 0°C° 0 mm 1 mps 721 mmHg 94%
    22:00 -1°C° 0 mm 1 mps 721 mmHg 94%
    23:00 -1°C° 0 mm 1 mps 721 mmHg 94%

    23 November, Friday

    Time Temperature Precipitation Wind Pressure Humidity
    00:00 -1°C° 0 mm 1 mps 721 mmHg 94%
    01:00 -1°C° 0 mm 1 mps 722 mmHg 94%
    02:00 -2°C° 0 mm 0 mps 722 mmHg 94%
    03:00 -2°C° 0 mm 0 mps 722 mmHg 94%
    04:00 -2°C° 0 mm 0 mps 722 mmHg 94%
    05:00 -2°C° 0 mm 0 mps 722 mmHg 94%
    06:00 -2°C° 0 mm 0 mps 722 mmHg 94%
    07:00 -2°C° 0 mm 0 mps 722 mmHg 93%
    08:00 0°C° 0 mm 0 mps 723 mmHg 89%
    09:00 +2°C° 0 mm 1 mps 723 mmHg 84%
    10:00 +4°C° 0 mm 1 mps 723 mmHg 80%
    11:00 +5°C° 0 mm 1 mps 723 mmHg 79%
    12:00 +6°C° 0 mm 1 mps 723 mmHg 77%
    13:00 +7°C° 0 mm 1 mps 723 mmHg 76%
    14:00 +5°C° 0 mm 1 mps 723 mmHg 81%
    15:00 +4°C° 0 mm 1 mps 723 mmHg 86%
    16:00 +3°C° 0 mm 1 mps 722 mmHg 92%
    17:00 +2°C° 0 mm 1 mps 722 mmHg 92%
    18:00 +2°C° 0 mm 1 mps 722 mmHg 93%
    19:00 +2°C° 0 mm 1 mps 722 mmHg 94%
    20:00 +2°C° 0 mm 1 mps 722 mmHg 94%
    21:00 +2°C° 0 mm 1 mps 722 mmHg 94%
    22:00 +2°C° 0 mm 1 mps 722 mmHg 94%
    23:00 +1°C° 0 mm 2 mps 721 mmHg 94%

    24 November, Saturday

    Time Temperature Precipitation Wind Pressure Humidity
    00:00 +1°C° 0 mm 2 mps 721 mmHg 94%
    01:00 +1°C° 0 mm 2 mps 721 mmHg 94%
    02:00 +1°C° 0 mm 2 mps 721 mmHg 94%
    03:00 +1°C° 0 mm 2 mps 721 mmHg 94%
    04:00 +1°C° 0 mm 2 mps 720 mmHg 95%
    05:00 +1°C° 0 mm 2 mps 720 mmHg 95%
    06:00 +1°C° 0 mm 2 mps 720 mmHg 94%
    07:00 +1°C° 0 mm 2 mps 719 mmHg 94%
    08:00 +2°C° 0 mm 2 mps 719 mmHg 91%
    09:00 +2°C° 0 mm 3 mps 720 mmHg 88%
    10:00 +3°C° 0 mm 3 mps 720 mmHg 84%
    11:00 +3°C° 0 mm 3 mps 719 mmHg 82%
    12:00 +4°C° 0 mm 3 mps 719 mmHg 80%
    13:00 +4°C° 0 mm 3 mps 718 mmHg 78%
    14:00 +3°C° 0 mm 3 mps 718 mmHg 82%
    15:00 +3°C° 0 mm 3 mps 717 mmHg 85%
    16:00 +3°C° 0 mm 2 mps 717 mmHg 88%
    17:00 +3°C° 0 mm 2 mps 717 mmHg 88%
    18:00 +3°C° 0 mm 2 mps 717 mmHg 88%
    19:00 +3°C° 0 mm 2 mps 717 mmHg 88%
    20:00 +3°C° 0.1 mm 2 mps 717 mmHg 88%
    21:00 +3°C° 0.1 mm 2 mps 716 mmHg 89%
    22:00 +2°C° 0.1 mm 2 mps 716 mmHg 89%
    23:00 +2°C° 0 mm 2 mps 716 mmHg 90%
    Show more